User: anonymous   Login
Location: Azul
(36.7830°S, 59.8500°W)
Time: 02:49:40
(UTC-03:00)
Language:

BEESAT 3 - Orbit

View from above orbital plane
View from above orbital plane
View from above satellite
View from above satellite

Ground track
Ground track

The orbit data is extracted from the following two-line orbital elements,

1 39134U 13015E   21295.70733262  .00003124  00000-0  13869-3 0  9999
2 39134  64.8615 118.4157 0020978 313.8009  46.1384 15.23392730470977
Epoch (UTC): 22 October 2021 16:58:33
Eccentricity: 0.0020978
inclination: 64.8615°
perigee height: 481 km
apogee height: 510 km
right ascension of ascending node: 118.4157°
argument of perigee: 313.8009°
revolutions per day: 15.23392730
mean anomaly at epoch: 46.1384°
orbit number at epoch: 47097

The dashed part of the orbit path shows where the satellite is in the earth's shadow,  

DLR